QPF
0.00 0.00 0.00 0.00 0.00 0.00 0.00 0.00 0.00 0.00 0.01 0.00 0.00 0.01 0.00 0.00 0.00 0.01 0.03 0.05 0.05 0.05 0.04 0.03 0.02 0.01 0.01 0.01 0.01 0.01 0.01 0.01 0.01 0.01 0.02 0.03 0.05 0.08 0.04 0.01 0.01 0.01 0.01 0.01
0.00 0.00 0.00 0.00 0.01 0.01 0.00 0.00 0.00 0.00 0.00 0.00 0.00 0.00 0.00 0.00 0.00 0.01 0.02 0.03 0.04 0.03 0.03 0.02 0.01 0.01 0.01 0.01 0.00 0.01 0.01 0.01 0.01 0.02 0.02 0.03 0.06 0.04 0.02 0.01 0.01 0.01 0.01 0.01
0.00 0.00 0.00 0.00 0.01 0.01 0.01 0.00 0.00 0.00 0.00 0.00 0.00 0.00 0.00 0.00 0.00 0.00 0.01 0.01 0.02 0.01 0.01 0.02 0.02 0.01 0.01 0.01 0.01 0.01 0.01 0.01 0.02 0.03 0.03 0.03 0.02 0.01 0.01 0.01 0.02 0.01 0.01 0.01
0.00 0.00 0.00 0.00 0.00 0.00 0.00 0.00 0.00 0.00 0.00 0.00 0.00 0.00 0.00 0.00 0.00 0.00 0.01 0.01 0.01 0.01 0.01 0.01 0.01 0.01 0.01 0.01 0.01 0.01 0.01 0.02 0.03 0.04 0.05 0.02 0.01 0.02 0.01 0.01 0.02 0.02 0.01 0.01
0.00 0.00 0.00 0.00 0.00 0.00 0.00 0.00 0.00 0.00 0.00 0.00 0.00 0.00 0.00 0.00 0.00 0.00 0.01 0.01 0.01 0.01 0.01 0.00 0.00 0.01 0.01 0.01 0.01 0.00 0.01 0.03 0.05 0.07 0.07 0.05 0.03 0.02 0.01 0.01 0.02 0.02 0.02 0.02
0.00 0.00 0.00 0.00 0.00 0.00 0.00 0.00 0.00 0.01 0.00 0.00 0.00 0.00 0.00 0.00 0.00 0.00 0.00 0.00 0.01 0.01 0.01 0.00 0.00 0.01 0.01 0.01 0.01 0.01 0.02 0.06 0.07 0.07 0.06 0.05 0.04 0.04 0.03 0.02 0.02 0.02 0.02 0.02
0.00 0.00 0.00 0.00 0.00 0.00 0.00 0.00 0.00 0.01 0.01 0.00 0.00 0.00 0.00 0.01 0.01 0.01 0.00 0.01 0.01 0.01 0.01 0.00 0.00 0.00 0.00 0.01 0.02 0.02 0.03 0.05 0.05 0.05 0.06 0.07 0.06 0.04 0.03 0.02 0.03 0.03 0.03 0.02
0.00 0.00 0.00 0.00 0.00 0.00 0.00 0.00 0.01 0.01 0.00 0.00 0.00 0.00 0.01 0.01 0.03 0.02 0.01 0.01 0.01 0.01 0.01 0.00 0.00 0.00 0.01 0.01 0.02 0.03 0.03 0.04 0.04 0.03 0.05 0.09 0.08 0.05 0.03 0.03 0.04 0.05 0.04 0.03
0.00 0.00 0.00 0.00 0.00 0.00 0.00 0.00 0.01 0.01 0.00 0.00 0.00 0.00 0.01 0.01 0.02 0.03 0.02 0.01 0.01 0.01 0.01 0.01 0.00 0.00 0.01 0.01 0.02 0.02 0.02 0.02 0.02 0.02 0.04 0.07 0.07 0.07 0.09 0.10 0.10 0.08 0.06 0.03
0.00 0.00 0.00 0.00 0.00 0.01 0.01 0.01 0.01 0.01 0.00 0.00 0.00 0.00 0.01 0.01 0.01 0.01 0.01 0.01 0.01 0.01 0.01 0.01 0.00 0.01 0.01 0.01 0.01 0.01 0.01 0.01 0.01 0.02 0.03 0.04 0.06 0.08 0.11 0.12 0.11 0.07 0.05 0.04
0.00 0.00 0.00 0.00 0.00 0.00 0.00 0.00 0.01 0.01 0.01 0.00 0.00 0.00 0.00 0.00 0.00 0.00 0.00 0.01 0.01 0.02 0.01 0.01 0.01 0.00 0.00 0.00 0.00 0.00 0.00 0.01 0.01 0.02 0.04 0.06 0.07 0.07 0.08 0.07 0.08 0.07 0.05 0.04
0.00 0.00 0.00 0.00 0.00 0.00 0.00 0.00 0.00 0.00 0.00 0.00 0.00 0.00 0.00 0.00 0.00 0.00 0.00 0.01 0.01 0.01 0.01 0.01 0.00 0.00 0.00 0.00 0.00 0.00 0.00 0.01 0.01 0.05 0.09 0.10 0.08 0.05 0.04 0.02 0.02 0.03 0.04 0.04
0.00 0.00 0.00 0.00 0.00 0.00 0.00 0.00 0.00 0.00 0.00 0.00 0.00 0.00 0.00 0.00 0.00 0.00 0.01 0.01 0.01 0.01 0.01 0.01 0.00 0.00 0.00 0.00 0.00 0.00 0.01 0.03 0.04 0.04 0.05 0.05 0.03 0.01 0.01 0.00 0.01 0.01 0.01 0.02
0.00 0.00 0.00 0.00 0.00 0.00 0.00 0.00 0.00 0.00 0.00 0.00 0.00 0.00 0.00 0.00 0.00 0.01 0.01 0.01 0.01 0.01 0.01 0.01 0.01 0.00 0.01 0.01 0.01 0.02 0.03 0.04 0.03 0.01 0.01 0.01 0.00 0.01 0.01 0.01 0.01 0.01 0.01 0.01
0.00 0.00 0.00 0.00 0.00 0.00 0.00 0.00 0.00 0.00 0.00 0.00 0.00 0.00 0.00 0.00 0.01 0.01 0.01 0.01 0.01 0.00 0.01 0.01 0.01 0.01 0.01 0.01 0.01 0.01 0.01 0.01 0.01 0.00 0.00 0.00 0.01 0.01 0.01 0.01 0.01 0.02 0.01 0.02
0.01 0.00 0.00 0.00 0.00 0.00 0.00 0.00 0.00 0.00 0.00 0.00 0.00 0.00 0.00 0.00 0.01 0.01 0.01 0.01 0.00 0.00 0.01 0.01 0.01 0.02 0.02 0.01 0.01 0.01 0.01 0.01 0.01 0.01 0.01 0.02 0.02 0.02 0.02 0.02 0.02 0.02 0.02 0.02
0.01 0.00 0.00 0.01 0.01 0.01 0.01 0.00 0.00 0.00 0.00 0.00 0.00 0.00 0.00 0.00 0.01 0.01 0.01 0.01 0.01 0.01 0.01 0.02 0.02 0.02 0.03 0.02 0.02 0.02 0.02 0.02 0.02 0.02 0.02 0.03 0.03 0.03 0.04 0.04 0.03 0.02 0.01 0.02
0.00 0.00 0.01 0.01 0.01 0.01 0.01 0.00 0.00 0.00 0.00 0.00 0.00 0.00 0.01 0.01 0.01 0.01 0.01 0.02 0.02 0.02 0.02 0.02 0.03 0.03 0.03 0.03 0.03 0.02 0.02 0.01 0.01 0.02 0.02 0.02 0.03 0.04 0.05 0.05 0.03 0.02 0.02 0.03
0.01 0.01 0.01 0.00 0.00 0.00 0.00 0.00 0.00 0.00 0.00 0.00 0.00 0.00 0.01 0.01 0.01 0.02 0.02 0.02 0.02 0.01 0.01 0.01 0.01 0.01 0.01 0.01 0.01 0.01 0.01 0.00 0.00 0.01 0.01 0.01 0.02 0.02 0.03 0.04 0.03 0.03 0.04 0.04
0.01 0.00 0.00 0.00 0.00 0.00 0.00 0.00 0.00 0.00 0.00 0.00 0.00 0.00 0.00 0.01 0.01 0.01 0.01 0.01 0.01 0.00 0.00 0.00 0.00 0.01 0.01 0.01 0.02 0.02 0.02 0.02 0.01 0.01 0.01 0.01 0.01 0.02 0.03 0.02 0.02 0.02 0.03 0.04
0.01 0.00 0.00 0.00 0.00 0.00 0.00 0.00 0.00 0.00 0.00 0.00 0.00 0.01 0.01 0.01 0.01 0.01 0.01 0.01 0.01 0.01 0.01 0.01 0.01 0.01 0.01 0.01 0.02 0.02 0.02 0.02 0.01 0.01 0.01 0.01 0.01 0.02 0.02 0.02 0.02 0.03 0.04 0.04
0.00 0.00 0.00 0.01 0.01 0.00 0.00 0.00 0.00 0.00 0.00 0.01 0.01 0.01 0.01 0.01 0.01 0.01 0.01 0.01 0.02 0.01 0.01 0.01 0.01 0.01 0.01 0.01 0.01 0.01 0.02 0.02 0.02 0.02 0.03 0.03 0.03 0.03 0.03 0.03 0.03 0.04 0.04 0.04
0.00 0.00 0.00 0.00 0.00 0.00 0.00 0.00 0.00 0.00 0.00 0.01 0.01 0.01 0.01 0.01 0.01 0.01 0.01 0.01 0.01 0.01 0.01 0.01 0.01 0.01 0.01 0.02 0.02 0.02 0.01 0.02 0.03 0.03 0.03 0.03 0.03 0.04 0.04 0.03 0.02 0.03 0.05 0.05
0.00 0.00 0.00 0.00 0.00 0.00 0.00 0.00 0.00 0.00 0.00 0.00 0.00 0.01 0.00 0.01 0.01 0.01 0.01 0.00 0.00 0.00 0.01 0.02 0.03 0.03 0.02 0.02 0.02 0.02 0.02 0.02 0.03 0.03 0.03 0.02 0.02 0.02 0.03 0.03 0.02 0.02 0.04 0.05
0.00 0.00 0.00 0.00 0.00 0.00 0.00 0.00 0.00 0.00 0.00 0.00 0.00 0.00 0.00 0.00 0.01 0.00 0.00 0.00 0.01 0.01 0.02 0.03 0.04 0.04 0.03 0.02 0.03 0.03 0.03 0.03 0.03 0.02 0.02 0.01 0.02 0.02 0.02 0.02 0.03 0.03 0.02 0.03
0.00 0.00 0.00 0.01 0.00 0.00 0.00 0.00 0.00 0.00 0.00 0.00 0.00 0.00 0.00 0.01 0.01 0.01 0.01 0.01 0.01 0.01 0.01 0.01 0.02 0.03 0.03 0.03 0.04 0.03 0.02 0.02 0.02 0.02 0.01 0.01 0.02 0.03 0.03 0.03 0.04 0.03 0.02 0.02
MSLP
1009.78 1010.51 1011.12 1011.58 1011.90 1012.10 1012.22 1012.31 1012.40 1012.50 1012.59 1012.63 1012.56 1012.34 1011.93 1011.30 1010.48 1009.51 1008.45 1007.39 1006.43 1005.63 1005.06 1004.78 1004.77 1005.04 1005.53 1006.22 1007.05 1007.95 1008.89 1009.82 1010.70 1011.52 1012.25 1012.89 1013.46 1013.94 1014.37 1014.76 1015.13 1015.51 1015.92 1016.37
1010.25 1010.81 1011.26 1011.59 1011.83 1012.04 1012.23 1012.45 1012.70 1012.96 1013.19 1013.34 1013.33 1013.15 1012.75 1012.14 1011.37 1010.49 1009.58 1008.72 1007.96 1007.36 1006.96 1006.77 1006.77 1006.95 1007.28 1007.74 1008.31 1008.96 1009.68 1010.43 1011.19 1011.94 1012.66 1013.32 1013.91 1014.41 1014.85 1015.23 1015.57 1015.92 1016.29 1016.70
1010.51 1010.89 1011.18 1011.40 1011.61 1011.86 1012.17 1012.56 1012.99 1013.44 1013.81 1014.06 1014.10 1013.92 1013.50 1012.89 1012.13 1011.32 1010.53 1009.83 1009.27 1008.87 1008.64 1008.55 1008.58 1008.70 1008.90 1009.17 1009.52 1009.95 1010.46 1011.05 1011.71 1012.41 1013.11 1013.78 1014.39 1014.91 1015.36 1015.73 1016.05 1016.36 1016.69 1017.05
1010.61 1010.80 1010.95 1011.10 1011.31 1011.64 1012.10 1012.68 1013.32 1013.95 1014.47 1014.80 1014.87 1014.66 1014.19 1013.52 1012.74 1011.95 1011.24 1010.66 1010.26 1010.03 1009.95 1009.97 1010.05 1010.16 1010.27 1010.41 1010.59 1010.84 1011.19 1011.66 1012.23 1012.88 1013.56 1014.25 1014.87 1015.42 1015.87 1016.23 1016.53 1016.81 1017.09 1017.41
1010.59 1010.62 1010.66 1010.76 1011.01 1011.45 1012.08 1012.86 1013.71 1014.52 1015.16 1015.55 1015.61 1015.35 1014.80 1014.05 1013.20 1012.39 1011.70 1011.21 1010.92 1010.83 1010.88 1011.01 1011.15 1011.27 1011.35 1011.40 1011.47 1011.60 1011.84 1012.21 1012.72 1013.33 1014.00 1014.69 1015.33 1015.88 1016.33 1016.69 1016.97 1017.22 1017.47 1017.75
1010.53 1010.44 1010.39 1010.48 1010.79 1011.35 1012.15 1013.12 1014.15 1015.11 1015.85 1016.27 1016.31 1015.98 1015.33 1014.47 1013.54 1012.68 1011.98 1011.53 1011.32 1011.32 1011.47 1011.69 1011.90 1012.05 1012.13 1012.15 1012.16 1012.22 1012.39 1012.70 1013.16 1013.73 1014.39 1015.07 1015.71 1016.27 1016.72 1017.06 1017.34 1017.57 1017.79 1018.05
1010.49 1010.29 1010.20 1010.31 1010.69 1011.37 1012.31 1013.43 1014.60 1015.66 1016.46 1016.89 1016.89 1016.48 1015.74 1014.78 1013.77 1012.85 1012.14 1011.69 1011.53 1011.60 1011.83 1012.12 1012.39 1012.58 1012.68 1012.70 1012.69 1012.72 1012.85 1013.12 1013.54 1014.08 1014.72 1015.38 1016.01 1016.56 1017.00 1017.34 1017.61 1017.83 1018.04 1018.28
1010.47 1010.22 1010.12 1010.26 1010.70 1011.47 1012.51 1013.73 1014.98 1016.08 1016.89 1017.30 1017.26 1016.79 1015.98 1014.95 1013.89 1012.94 1012.22 1011.79 1011.65 1011.77 1012.05 1012.39 1012.71 1012.94 1013.07 1013.11 1013.10 1013.13 1013.24 1013.48 1013.87 1014.38 1014.98 1015.61 1016.22 1016.75 1017.18 1017.52 1017.79 1018.00 1018.22 1018.44
1010.46 1010.20 1010.11 1010.29 1010.79 1011.61 1012.69 1013.94 1015.19 1016.28 1017.06 1017.42 1017.34 1016.83 1015.98 1014.95 1013.89 1012.96 1012.26 1011.86 1011.76 1011.91 1012.23 1012.61 1012.96 1013.22 1013.37 1013.43 1013.45 1013.48 1013.58 1013.80 1014.16 1014.64 1015.20 1015.79 1016.36 1016.87 1017.29 1017.62 1017.88 1018.10 1018.32 1018.54
1010.43 1010.19 1010.14 1010.36 1010.88 1011.71 1012.78 1013.98 1015.17 1016.18 1016.88 1017.18 1017.06 1016.54 1015.72 1014.74 1013.74 1012.89 1012.26 1011.93 1011.88 1012.07 1012.41 1012.81 1013.18 1013.46 1013.64 1013.72 1013.76 1013.80 1013.90 1014.12 1014.45 1014.89 1015.40 1015.94 1016.47 1016.94 1017.34 1017.66 1017.92 1018.14 1018.36 1018.58
1010.33 1010.15 1010.16 1010.41 1010.93 1011.73 1012.72 1013.81 1014.87 1015.75 1016.34 1016.57 1016.42 1015.93 1015.18 1014.30 1013.44 1012.72 1012.22 1011.98 1012.00 1012.24 1012.61 1013.02 1013.39 1013.69 1013.88 1013.99 1014.04 1014.11 1014.22 1014.43 1014.73 1015.13 1015.60 1016.09 1016.56 1016.99 1017.36 1017.66 1017.91 1018.14 1018.35 1018.57
1010.16 1010.07 1010.14 1010.42 1010.93 1011.65 1012.53 1013.46 1014.34 1015.06 1015.51 1015.66 1015.49 1015.05 1014.41 1013.69 1013.01 1012.46 1012.11 1012.00 1012.11 1012.40 1012.79 1013.20 1013.58 1013.88 1014.09 1014.22 1014.30 1014.39 1014.52 1014.73 1015.02 1015.38 1015.79 1016.23 1016.64 1017.02 1017.35 1017.63 1017.87 1018.09 1018.30 1018.51
1009.98 1009.97 1010.11 1010.41 1010.89 1011.51 1012.24 1012.98 1013.66 1014.19 1014.50 1014.56 1014.39 1014.01 1013.50 1012.96 1012.47 1012.11 1011.94 1011.96 1012.16 1012.50 1012.90 1013.32 1013.70 1014.00 1014.23 1014.38 1014.51 1014.63 1014.78 1015.00 1015.28 1015.61 1015.97 1016.35 1016.71 1017.03 1017.32 1017.57 1017.79 1017.99 1018.19 1018.39
1009.85 1009.94 1010.13 1010.44 1010.87 1011.38 1011.93 1012.47 1012.93 1013.27 1013.43 1013.41 1013.23 1012.92 1012.54 1012.18 1011.88 1011.72 1011.70 1011.85 1012.13 1012.50 1012.92 1013.33 1013.70 1014.01 1014.25 1014.45 1014.61 1014.78 1014.97 1015.20 1015.48 1015.78 1016.11 1016.43 1016.73 1017.00 1017.24 1017.45 1017.65 1017.83 1018.02 1018.21
1009.89 1010.05 1010.27 1010.57 1010.92 1011.30 1011.68 1012.01 1012.26 1012.40 1012.42 1012.33 1012.13 1011.89 1011.63 1011.42 1011.30 1011.29 1011.41 1011.65 1011.98 1012.38 1012.79 1013.19 1013.56 1013.87 1014.14 1014.37 1014.59 1014.81 1015.05 1015.31 1015.59 1015.88 1016.17 1016.44 1016.69 1016.91 1017.10 1017.28 1017.45 1017.61 1017.79 1017.96
1010.17 1010.36 1010.59 1010.84 1011.09 1011.33 1011.52 1011.65 1011.70 1011.67 1011.56 1011.39 1011.18 1010.98 1010.82 1010.74 1010.74 1010.86 1011.07 1011.37 1011.73 1012.12 1012.52 1012.90 1013.25 1013.57 1013.86 1014.14 1014.42 1014.70 1014.99 1015.29 1015.59 1015.87 1016.14 1016.37 1016.58 1016.75 1016.91 1017.06 1017.20 1017.36 1017.51 1017.67
1010.73 1010.90 1011.08 1011.25 1011.38 1011.45 1011.46 1011.40 1011.27 1011.08 1010.85 1010.61 1010.40 1010.23 1010.14 1010.13 1010.23 1010.41 1010.68 1011.00 1011.35 1011.72 1012.09 1012.44 1012.78 1013.11 1013.43 1013.76 1014.10 1014.45 1014.80 1015.15 1015.47 1015.76 1016.02 1016.23 1016.41 1016.56 1016.69 1016.82 1016.95 1017.10 1017.24 1017.38
1011.50 1011.61 1011.70 1011.73 1011.71 1011.62 1011.45 1011.20 1010.91 1010.59 1010.27 1009.98 1009.74 1009.60 1009.55 1009.60 1009.74 1009.96 1010.24 1010.55 1010.88 1011.21 1011.54 1011.86 1012.19 1012.53 1012.89 1013.27 1013.68 1014.09 1014.51 1014.90 1015.26 1015.58 1015.85 1016.06 1016.23 1016.37 1016.50 1016.63 1016.76 1016.90 1017.04 1017.17
1012.36 1012.36 1012.30 1012.18 1011.99 1011.72 1011.37 1010.97 1010.54 1010.12 1009.73 1009.40 1009.16 1009.03 1009.00 1009.08 1009.25 1009.48 1009.74 1010.03 1010.32 1010.62 1010.91 1011.22 1011.54 1011.90 1012.30 1012.73 1013.20 1013.68 1014.16 1014.61 1015.02 1015.37 1015.66 1015.89 1016.08 1016.24 1016.38 1016.51 1016.66 1016.80 1016.94 1017.07
1013.12 1012.98 1012.76 1012.46 1012.09 1011.65 1011.15 1010.62 1010.09 1009.60 1009.16 1008.82 1008.59 1008.48 1008.47 1008.57 1008.74 1008.97 1009.22 1009.48 1009.74 1010.00 1010.28 1010.57 1010.90 1011.29 1011.72 1012.21 1012.73 1013.28 1013.81 1014.32 1014.78 1015.18 1015.51 1015.78 1016.00 1016.19 1016.36 1016.52 1016.68 1016.84 1016.98 1017.09
1013.60 1013.31 1012.93 1012.46 1011.93 1011.35 1010.73 1010.11 1009.52 1008.99 1008.55 1008.22 1008.01 1007.93 1007.95 1008.06 1008.24 1008.46 1008.70 1008.94 1009.19 1009.43 1009.70 1010.00 1010.35 1010.76 1011.24 1011.77 1012.34 1012.94 1013.53 1014.09 1014.60 1015.04 1015.42 1015.74 1016.01 1016.24 1016.44 1016.64 1016.81 1016.98 1017.12 1017.22
1013.68 1013.25 1012.72 1012.12 1011.47 1010.79 1010.10 1009.44 1008.84 1008.32 1007.91 1007.62 1007.46 1007.41 1007.46 1007.59 1007.78 1008.01 1008.24 1008.48 1008.73 1008.98 1009.26 1009.58 1009.95 1010.39 1010.90 1011.47 1012.08 1012.71 1013.34 1013.94 1014.49 1014.98 1015.40 1015.77 1016.08 1016.35 1016.59 1016.81 1017.01 1017.18 1017.30 1017.38
1013.32 1012.78 1012.15 1011.47 1010.75 1010.03 1009.33 1008.69 1008.13 1007.67 1007.33 1007.10 1006.99 1006.99 1007.08 1007.24 1007.45 1007.68 1007.92 1008.17 1008.43 1008.70 1009.00 1009.35 1009.75 1010.22 1010.75 1011.34 1011.97 1012.61 1013.26 1013.87 1014.44 1014.96 1015.42 1015.82 1016.17 1016.48 1016.75 1016.99 1017.19 1017.35 1017.46 1017.51
1012.58 1011.97 1011.29 1010.58 1009.86 1009.17 1008.54 1007.98 1007.51 1007.15 1006.90 1006.76 1006.72 1006.77 1006.90 1007.08 1007.30 1007.55 1007.80 1008.07 1008.35 1008.64 1008.97 1009.34 1009.77 1010.25 1010.79 1011.37 1011.99 1012.62 1013.25 1013.86 1014.43 1014.96 1015.43 1015.85 1016.23 1016.55 1016.84 1017.08 1017.27 1017.41 1017.50 1017.52
1011.58 1010.95 1010.28 1009.61 1008.96 1008.37 1007.85 1007.42 1007.09 1006.86 1006.72 1006.68 1006.72 1006.82 1006.98 1007.18 1007.41 1007.66 1007.92 1008.20 1008.49 1008.81 1009.15 1009.54 1009.97 1010.45 1010.97 1011.53 1012.11 1012.70 1013.29 1013.86 1014.41 1014.92 1015.38 1015.81 1016.19 1016.52 1016.80 1017.03 1017.21 1017.33 1017.39 1017.39
1010.51 1009.91 1009.30 1008.72 1008.20 1007.75 1007.40 1007.14 1006.97 1006.89 1006.88 1006.93 1007.04 1007.18 1007.36 1007.56 1007.78 1008.02 1008.27 1008.55 1008.84 1009.16 1009.51 1009.90 1010.31 1010.76 1011.24 1011.74 1012.26 1012.79 1013.31 1013.82 1014.32 1014.79 1015.24 1015.65 1016.02 1016.34 1016.62 1016.83 1016.99 1017.09 1017.13 1017.11
Thickness
5819 5804 5794 5799 5804 5805 5800 5793 5789 5800 5815 5808 5800 5800 5805 5809 5806 5803 5802 5802 5801 5802 5807 5807 5807 5806 5803 5801 5799 5797 5794 5793 5791 5788 5784 5781 5780 5779 5778 5777 5775 5774 5773 5771
5802 5796 5812 5817 5815 5809 5802 5793 5792 5803 5815 5808 5799 5800 5807 5809 5807 5808 5806 5805 5804 5804 5805 5806 5805 5805 5803 5801 5799 5798 5796 5794 5792 5790 5787 5784 5782 5780 5778 5777 5775 5774 5772 5771
5796 5808 5822 5817 5809 5804 5800 5794 5795 5796 5805 5806 5799 5791 5799 5808 5811 5811 5811 5811 5810 5808 5805 5805 5805 5804 5803 5802 5801 5800 5797 5795 5793 5791 5787 5784 5781 5779 5776 5775 5774 5774 5772 5771
5802 5816 5818 5812 5808 5807 5794 5811 5808 5802 5788 5777 5787 5765 5788 5797 5802 5807 5809 5810 5811 5812 5811 5809 5808 5806 5806 5806 5805 5802 5799 5796 5794 5791 5786 5782 5779 5776 5775 5774 5773 5773 5772 5771
5801 5814 5814 5809 5814 5815 5808 5816 5808 5798 5785 5773 5777 5766 5776 5793 5793 5801 5809 5813 5815 5816 5816 5814 5813 5811 5810 5809 5807 5804 5800 5797 5795 5792 5789 5784 5781 5779 5777 5776 5773 5772 5770 5769
5809 5822 5822 5820 5826 5824 5819 5808 5796 5782 5771 5756 5768 5763 5767 5783 5794 5803 5810 5814 5817 5818 5818 5817 5817 5815 5812 5811 5808 5805 5801 5798 5797 5794 5790 5786 5782 5779 5776 5774 5771 5769 5768 5767
5795 5810 5822 5827 5815 5816 5808 5782 5758 5753 5743 5748 5768 5763 5769 5798 5806 5808 5811 5814 5817 5818 5817 5816 5814 5813 5812 5810 5808 5805 5801 5798 5797 5794 5790 5787 5784 5780 5776 5774 5770 5768 5766 5765
5775 5779 5810 5820 5814 5803 5799 5785 5756 5744 5739 5746 5762 5759 5782 5808 5813 5815 5816 5817 5818 5818 5817 5815 5815 5813 5812 5810 5808 5805 5801 5798 5796 5793 5790 5788 5785 5781 5778 5775 5771 5768 5766 5765
5771 5777 5811 5821 5823 5813 5794 5781 5783 5757 5749 5742 5751 5767 5789 5808 5807 5809 5811 5813 5814 5816 5817 5815 5814 5813 5811 5809 5808 5805 5801 5798 5795 5793 5790 5787 5784 5781 5778 5775 5772 5769 5766 5765
5785 5777 5798 5811 5817 5809 5803 5786 5767 5752 5736 5733 5748 5757 5767 5788 5794 5800 5803 5805 5809 5812 5813 5813 5813 5812 5810 5809 5807 5804 5800 5797 5794 5792 5789 5787 5783 5780 5778 5775 5772 5769 5766 5764
5787 5773 5781 5793 5792 5789 5789 5779 5763 5748 5747 5733 5731 5751 5788 5790 5795 5796 5800 5803 5804 5806 5808 5809 5809 5810 5809 5807 5804 5801 5798 5795 5792 5790 5788 5785 5781 5779 5776 5773 5770 5767 5764 5762
5780 5765 5758 5775 5794 5799 5793 5782 5766 5755 5744 5737 5734 5752 5797 5796 5797 5797 5797 5800 5801 5803 5804 5805 5805 5805 5803 5801 5800 5798 5795 5792 5790 5787 5784 5781 5778 5776 5772 5769 5767 5765 5761 5759
5775 5759 5745 5753 5767 5781 5780 5777 5767 5755 5740 5729 5731 5754 5793 5793 5793 5794 5794 5796 5797 5798 5798 5799 5799 5798 5797 5796 5795 5794 5792 5789 5786 5783 5779 5777 5774 5771 5768 5766 5763 5761 5758 5755
5777 5753 5748 5743 5752 5764 5768 5771 5766 5757 5739 5733 5740 5756 5776 5783 5784 5787 5789 5792 5792 5792 5793 5793 5792 5792 5792 5792 5791 5789 5788 5785 5782 5779 5775 5772 5770 5767 5765 5762 5759 5756 5754 5751
5767 5749 5753 5756 5764 5766 5765 5766 5765 5760 5754 5746 5754 5756 5769 5778 5782 5784 5786 5787 5787 5787 5787 5787 5787 5787 5787 5786 5785 5784 5783 5781 5778 5774 5771 5768 5766 5764 5761 5757 5754 5752 5750 5747
5750 5743 5745 5747 5756 5758 5756 5761 5762 5761 5760 5756 5756 5758 5776 5779 5779 5779 5780 5780 5780 5781 5782 5783 5782 5782 5782 5782 5781 5780 5778 5776 5774 5770 5767 5765 5762 5759 5756 5753 5751 5748 5745 5742
5735 5734 5728 5725 5739 5746 5738 5754 5758 5758 5760 5758 5752 5761 5771 5769 5770 5772 5774 5774 5775 5776 5777 5777 5778 5778 5778 5778 5777 5774 5772 5770 5767 5764 5762 5760 5756 5753 5750 5748 5745 5742 5739 5737
5727 5720 5711 5711 5724 5715 5739 5761 5762 5756 5757 5758 5759 5762 5765 5766 5768 5771 5772 5770 5769 5771 5772 5773 5774 5773 5773 5773 5771 5768 5765 5763 5760 5757 5755 5753 5750 5747 5744 5741 5738 5736 5733 5730
5723 5715 5702 5696 5701 5713 5737 5751 5752 5746 5745 5754 5753 5756 5758 5761 5762 5761 5767 5768 5767 5767 5768 5769 5769 5768 5766 5765 5763 5760 5757 5754 5752 5749 5747 5745 5742 5739 5736 5733 5730 5728 5725 5722
5711 5709 5698 5691 5697 5699 5727 5749 5754 5745 5732 5749 5749 5748 5750 5750 5740 5747 5760 5761 5761 5762 5762 5761 5762 5761 5758 5756 5754 5751 5748 5745 5742 5741 5739 5737 5735 5732 5728 5725 5722 5720 5717 5714
5696 5692 5688 5686 5690 5703 5731 5742 5745 5721 5726 5743 5744 5743 5742 5740 5742 5749 5753 5753 5754 5754 5754 5753 5752 5750 5749 5748 5745 5741 5739 5736 5735 5733 5731 5728 5726 5724 5721 5717 5714 5710 5708 5705
5686 5682 5679 5677 5683 5697 5729 5730 5724 5725 5735 5737 5738 5738 5737 5737 5740 5742 5744 5744 5744 5744 5744 5743 5740 5739 5739 5738 5735 5731 5728 5728 5727 5724 5721 5718 5716 5714 5712 5708 5704 5702 5699 5696
5680 5684 5682 5685 5693 5709 5717 5721 5726 5727 5727 5730 5730 5732 5731 5730 5731 5732 5733 5734 5734 5734 5733 5732 5730 5728 5728 5727 5725 5721 5720 5719 5717 5715 5711 5708 5706 5704 5701 5698 5695 5692 5689 5686
5678 5681 5679 5683 5696 5704 5710 5715 5719 5721 5722 5725 5726 5725 5725 5723 5723 5722 5722 5723 5723 5723 5723 5722 5720 5717 5716 5716 5715 5713 5711 5709 5707 5705 5702 5699 5697 5694 5691 5687 5685 5682 5679 5677
5671 5673 5671 5675 5686 5694 5702 5705 5708 5712 5716 5718 5718 5718 5717 5715 5714 5713 5712 5712 5713 5712 5712 5712 5710 5707 5705 5705 5704 5703 5701 5700 5697 5694 5692 5689 5687 5685 5681 5678 5676 5674 5673 5669
5664 5665 5665 5669 5679 5680 5687 5696 5699 5700 5703 5706 5707 5707 5708 5708 5706 5704 5703 5703 5702 5702 5702 5701 5700 5698 5697 5696 5694 5694 5692 5690 5687 5684 5681 5679 5677 5675 5672 5669 5666 5665 5663 5660